Wind_Speed
9 10 12 8 7 7 17 16 14 17 11 10 12 6 9 8 5 9 19 14 14 10 12 11 10 9 8 8 8 8 7 8 9 10 11 11 12 12 13 14 14 14 15 16 17 17 17 18 18
11 10 14 12 7 18 17 14 13 11 14 14 14 11 7 9 5 17 17 15 13 11 10 9 8 8 7 7 8 7 8 9 9 10 11 12 12 13 14 14 16 18 20 21 20 20 20 20 19
9 9 8 15 4 20 15 10 12 14 14 9 9 7 5 14 16 15 14 13 14 11 9 7 6 6 7 7 8 7 8 9 10 10 10 11 12 14 15 17 20 21 22 21 22 21 20 19 19
15 17 13 10 16 14 13 10 11 11 8 7 7 9 18 17 12 14 15 13 12 8 6 4 5 5 6 8 8 7 7 9 10 10 11 13 14 16 19 21 20 21 21 21 21 20 19 19 19
14 4 4 15 18 17 11 11 10 8 7 7 8 12 15 14 14 14 13 12 10 7 4 3 5 5 6 6 7 8 8 9 10 12 14 16 19 21 21 21 21 21 21 20 20 19 18 20 21
5 1 10 16 17 13 11 11 8 7 8 5 9 16 12 14 14 13 11 12 8 2 4 6 6 5 6 7 8 9 10 11 15 18 20 21 22 22 22 21 20 21 20 19 20 19 19 21 21
3 7 10 14 13 12 9 8 7 6 7 8 15 12 12 15 14 11 10 13 9 7 5 7 6 6 7 8 9 10 14 17 21 22 22 23 22 21 21 19 19 20 19 20 20 19 18 19 19
8 4 12 10 9 12 9 6 9 7 8 13 13 6 14 14 13 10 7 7 9 6 7 5 5 8 8 9 10 13 18 22 22 23 23 23 22 19 19 19 18 19 19 18 18 17 16 16 15
7 9 9 8 9 9 8 6 5 8 11 12 10 9 14 12 13 10 7 7 7 6 5 5 6 8 8 10 12 16 21 22 23 23 22 22 21 17 17 17 17 17 16 15 14 13 12 12 12
17 13 9 7 11 8 8 5 9 10 10 12 10 16 10 11 12 10 7 7 7 7 6 6 7 8 8 10 14 18 21 21 21 21 21 16 16 17 17 14 14 13 12 11 10 9 7 4 8
5 6 10 7 8 8 7 6 9 8 5 9 14 11 10 12 13 11 9 8 7 7 7 8 8 10 9 12 15 17 17 17 17 17 14 19 18 15 11 9 10 10 9 5 7 6 2 1 1
5 7 9 9 10 9 9 9 11 3 6 8 13 13 11 12 14 12 11 9 8 8 9 10 9 11 12 14 15 14 14 19 18 15 13 16 9 9 14 9 9 6 4 4 4 2 2 3 4
8 7 9 10 12 9 11 11 5 4 6 11 15 14 14 14 13 12 10 9 9 8 9 11 11 11 13 18 16 15 15 11 14 15 13 11 9 10 9 8 7 6 2 3 3 6 6 8 7
8 9 9 10 10 10 9 8 4 5 6 7 12 15 14 14 13 13 11 10 10 9 8 8 11 12 14 15 14 15 13 15 13 13 13 10 8 8 7 3 1 2 1 3 4 7 7 4 3
9 10 8 7 8 5 5 5 4 4 9 8 11 14 14 14 14 13 12 12 12 9 8 9 10 11 14 14 14 13 11 8 10 11 13 12 12 11 9 5 4 6 10 8 10 10 9 10 9
10 8 8 8 6 3 8 9 5 7 8 8 12 13 14 14 15 14 14 14 14 13 11 8 10 10 11 15 16 14 10 15 10 10 13 13 12 11 10 5 6 16 8 9 11 9 12 10 13
13 7 14 6 6 2 6 1 4 6 7 7 10 12 13 13 14 15 15 14 15 15 15 10 10 12 13 13 15 17 16 15 10 10 10 16 15 14 14 14 11 22 15 10 15 14 16 14 15
4 10 5 6 7 5 5 4 5 6 6 9 10 13 14 13 14 15 15 14 15 18 17 15 13 13 13 16 16 14 12 13 12 12 11 22 14 14 11 14 16 17 16 12 17 20 18 18 14
14 3 5 5 4 4 7 7 7 8 9 10 10 14 16 15 14 16 14 15 16 18 19 17 15 13 11 10 14 10 9 11 13 14 18 27 16 18 19 17 10 15 12 17 14 15 16 13 12
5 5 3 5 6 5 7 11 8 11 12 12 13 15 17 16 16 17 17 17 17 16 17 17 17 15 12 11 11 13 13 10 11 15 23 28 22 20 18 20 17 18 15 15 16 16 16 16 17
8 9 7 8 7 12 8 11 6 10 12 14 14 14 15 16 16 17 19 18 16 17 17 14 15 17 17 17 17 16 16 17 22 23 23 25 24 22 23 20 17 18 18 20 20 21 20 20 18
5 3 4 10 12 4 10 6 9 10 10 13 14 15 14 17 18 18 19 19 19 18 18 16 14 16 18 17 20 21 19 16 15 17 19 26 23 23 24 22 21 19 23 22 22 21 17 19 16
1 2 3 6 13 11 13 9 7 13 12 8 11 14 15 16 18 19 19 20 18 18 19 19 16 16 17 20 22 23 23 22 21 24 26 32 25 25 25 25 24 23 25 24 24 23 21 21 16
7 7 9 12 16 18 16 18 6 5 9 9 5 7 14 17 18 19 19 20 20 18 19 19 26 18 17 19 20 25 26 27 27 30 34 36 32 30 30 29 29 27 26 28 26 26 24 21 17
8 14 20 6 10 9 5 15 5 4 4 4 2 3 7 14 20 20 19 19 19 18 18 19 27 25 23 23 25 26 27 30 32 33 35 41 42 37 34 31 31 31 31 29 31 25 25 18 15
10 17 13 11 12 9 18 4 5 5 2 4 7 6 5 8 15 20 18 18 18 17 28 30 31 20 21 22 24 26 28 31 33 34 33 31 34 33 36 34 33 32 34 35 34 37 31 16 11
16 23 20 24 25 27 25 12 4 10 6 3 8 11 10 8 15 17 17 20 22 34 36 30 26 24 25 26 26 26 29 31 30 31 37 34 5 8 28 35 37 30 22 20 26 25 35 21 16
17 20 19 20 15 15 24 19 13 4 9 6 6 10 9 7 10 24 32 33 37 39 28 27 29 30 31 31 31 37 29 21 33 37 30 38 30 28 19 29 18 19 11 21 14 14 14 23 24
17 13 15 20 19 14 12 4 4 5 3 2 9 10 10 10 10 18 31 35 41 35 30 31 31 27 26 27 21 16 13 12 16 25 27 23 17 5 10 9 9 6 19 19 20 24 22 20 23
17 19 18 21 18 23 20 22 0 2 9 10 12 15 17 16 16 16 20 28 34 36 34 28 28 24 17 11 9 11 12 13 11 5 5 7 9 13 16 16 19 14 17 17 18 19 12 11 14
Wind_Direction
107 90 94 95 72 105 103 97 105 111 110 124 117 98 127 125 95 148 155 153 145 149 141 134 127 120 120 124 123 119 123 129 128 122 114 116 115 110 104 98 98 94 95 94 91 90 90 87 84
109 85 111 94 131 101 100 105 98 107 118 112 96 82 99 107 187 146 152 152 138 142 142 133 127 123 122 125 123 124 125 121 121 120 122 117 116 109 104 103 101 99 98 96 95 91 88 87 83
107 95 117 113 94 119 118 112 114 116 109 110 84 90 108 126 116 142 150 146 134 149 134 134 125 122 131 130 135 142 129 124 122 121 117 114 112 109 109 107 104 101 99 97 95 94 92 89 85
109 93 69 101 101 105 115 120 118 116 121 98 103 76 113 135 127 150 148 140 132 145 127 131 131 135 136 136 139 133 123 120 117 118 115 115 116 111 112 110 107 104 100 98 95 92 90 89 87
116 82 112 105 101 109 107 107 118 115 113 118 100 125 140 136 145 143 138 138 139 118 137 131 138 132 125 119 116 122 118 107 111 116 118 116 113 112 113 113 111 106 101 98 95 93 90 85 81
109 188 143 118 110 110 106 106 106 113 117 140 122 136 141 150 143 140 138 119 121 110 142 131 125 126 129 127 124 121 116 113 117 118 118 115 114 115 114 112 110 106 103 100 97 95 90 86 84
212 126 130 115 116 115 111 103 92 112 112 116 143 136 154 150 150 146 139 133 153 130 141 122 128 130 131 130 124 122 120 118 121 119 118 115 113 113 112 111 110 108 106 105 102 98 95 91 87
93 34 112 115 126 114 109 105 105 115 136 137 136 171 159 156 151 141 133 132 140 126 139 113 125 125 134 127 123 125 123 123 122 121 119 116 115 116 117 116 111 108 106 104 102 99 96 91 87
87 125 122 129 129 130 114 87 100 128 136 139 159 160 162 155 144 138 130 116 116 121 126 124 117 127 128 132 132 130 128 128 127 125 123 121 113 119 115 114 112 110 109 108 104 100 96 93 90
124 111 114 88 113 138 125 117 117 116 131 147 124 155 164 155 142 143 130 126 117 125 132 129 139 134 142 139 141 137 138 137 134 132 134 102 128 125 121 120 119 117 116 112 109 105 102 124 58
91 96 96 107 111 132 139 136 133 126 128 165 158 159 157 160 151 155 147 156 149 143 148 147 153 145 153 149 148 144 142 139 138 138 145 143 129 136 102 115 125 128 119 89 137 135 102 347 6
132 87 109 104 112 119 124 117 129 125 131 178 171 165 161 164 163 165 162 161 159 156 157 163 166 159 159 154 153 156 160 153 150 150 147 136 99 119 135 161 180 102 247 163 186 163 259 272 304
115 110 115 124 117 118 114 125 129 122 130 156 170 163 167 168 170 172 171 164 168 164 166 180 172 172 165 160 174 151 180 142 169 161 162 165 154 161 115 160 151 176 150 285 265 255 280 284 312
127 132 131 120 127 124 126 124 80 108 116 160 164 165 171 175 178 181 176 174 175 160 169 184 182 173 171 180 171 172 158 189 165 172 178 183 197 190 175 154 196 253 186 256 280 272 281 277 314
132 124 136 145 139 163 162 142 135 135 155 158 171 173 179 182 187 193 186 187 179 182 177 184 191 186 178 176 179 185 195 170 198 197 198 201 205 203 226 238 207 249 261 269 280 289 296 297 308
178 167 156 162 164 216 215 202 156 153 159 177 179 184 187 193 194 196 197 199 202 192 199 191 185 192 191 189 191 195 190 194 207 216 223 223 229 238 239 272 268 258 273 285 298 307 297 282 275
201 315 142 149 180 224 232 15 182 178 177 204 200 200 197 202 199 203 201 200 210 209 198 201 201 200 201 204 207 211 210 202 210 231 253 247 241 251 259 260 249 261 261 279 280 270 264 278 284
212 190 176 125 179 201 240 252 222 196 197 211 216 210 207 205 208 213 197 200 212 212 206 203 207 217 213 215 212 219 226 234 222 233 232 262 244 243 257 269 273 269 260 264 256 264 283 287 297
264 149 215 230 178 244 266 263 256 212 207 210 215 213 209 207 211 212 201 208 211 220 219 218 216 219 224 226 227 224 233 248 236 240 240 240 243 257 268 262 281 302 296 266 278 277 287 291 289
249 216 239 215 245 260 259 251 231 219 234 213 220 216 207 208 205 211 216 208 211 241 224 220 220 222 226 233 235 227 217 235 258 242 248 256 244 254 261 266 263 249 264 273 265 271 275 279 274
226 203 255 257 253 252 243 240 217 217 221 213 214 218 217 209 208 216 219 218 217 220 241 237 241 242 239 240 241 244 245 233 229 237 248 255 254 259 260 261 255 265 273 275 274 275 274 275 269
194 303 205 255 257 228 245 166 194 188 210 217 217 219 216 218 214 217 221 227 222 229 235 247 245 251 250 247 254 253 250 256 269 268 251 247 254 256 256 256 263 266 276 278 283 283 288 280 265
299 330 272 258 264 267 209 249 208 165 166 192 210 223 222 221 220 221 227 231 233 229 240 253 256 250 253 250 250 255 259 244 243 250 258 257 257 253 253 254 258 267 272 276 277 281 280 273 274
292 289 272 258 259 267 116 289 151 316 121 122 161 218 225 223 225 222 222 225 231 230 232 240 262 257 255 255 255 251 246 248 246 245 252 263 257 253 253 257 262 265 273 270 276 279 279 263 261
267 274 273 264 322 338 60 228 180 126 88 109 165 195 227 232 226 225 218 223 227 226 231 234 246 247 239 244 245 252 253 255 255 258 260 269 256 252 254 259 263 263 270 275 264 268 268 258 256
277 284 286 262 269 256 185 320 104 172 0 328 336 315 299 278 225 223 226 220 222 223 227 230 234 249 253 256 258 260 263 263 263 263 264 263 230 252 250 256 261 266 273 275 270 261 266 245 254
266 252 266 288 278 286 277 249 263 198 171 130 292 303 312 295 195 210 222 223 215 231 234 243 251 256 262 264 268 270 266 265 274 282 279 285 279 237 257 253 256 266 286 293 270 258 248 256 269
257 265 284 241 280 298 308 294 318 12 196 159 306 295 292 296 236 216 215 207 227 242 249 249 255 262 271 274 278 300 285 281 278 271 267 261 270 275 296 272 271 250 311 284 296 241 264 266 275
237 245 242 268 276 297 297 304 74 178 306 217 292 270 269 285 268 233 225 227 229 239 244 245 254 265 276 285 308 301 320 323 272 270 265 270 298 295 259 215 239 204 260 271 260 242 255 266 272
256 268 274 284 271 251 259 271 152 184 269 266 286 287 286 281 266 254 241 238 239 246 253 258 262 268 283 294 290 292 300 283 312 339 290 255 249 268 280 274 267 267 258 256 259 262 265 293 290
Height
3171 3172 3172 3171 3178 3175 3177 3181 3181 3182 3183 3184 3185 3185 3186 3184 3184 3190 3188 3189 3190 3191 3192 3193 3193 3194 3194 3195 3195 3195 3195 3195 3196 3197 3198 3198 3198 3199 3200 3200 3201 3201 3202 3202 3202 3203 3203 3204 3204
3173 3174 3173 3174 3177 3176 3181 3183 3183 3184 3184 3184 3186 3188 3188 3187 3186 3186 3189 3190 3193 3192 3193 3194 3194 3195 3195 3195 3196 3196 3196 3197 3198 3199 3199 3200 3201 3202 3203 3203 3204 3204 3205 3205 3206 3206 3207 3207 3207
3175 3175 3173 3171 3176 3177 3182 3184 3185 3185 3186 3188 3188 3188 3188 3187 3189 3190 3191 3192 3195 3194 3195 3196 3196 3195 3196 3196 3197 3197 3198 3199 3201 3201 3202 3203 3204 3205 3205 3206 3207 3208 3208 3209 3209 3210 3210 3210 3211
3176 3177 3179 3179 3179 3181 3184 3186 3187 3187 3189 3189 3190 3188 3189 3190 3191 3191 3192 3194 3196 3195 3197 3197 3196 3196 3197 3198 3199 3199 3200 3202 3203 3203 3205 3205 3207 3208 3208 3210 3211 3212 3212 3213 3213 3213 3213 3214 3214
3179 3179 3183 3183 3183 3185 3187 3188 3189 3189 3190 3191 3191 3191 3190 3191 3191 3192 3194 3196 3198 3198 3197 3198 3197 3198 3199 3199 3201 3202 3203 3204 3205 3206 3207 3209 3210 3211 3212 3213 3214 3215 3216 3217 3217 3217 3218 3218 3217
3182 3182 3183 3184 3184 3187 3189 3190 3191 3192 3193 3192 3194 3191 3193 3192 3193 3194 3196 3199 3204 3199 3197 3198 3199 3200 3201 3202 3203 3204 3205 3206 3207 3209 3211 3212 3213 3214 3215 3217 3218 3219 3219 3220 3221 3221 3221 3222 3221
3181 3175 3184 3185 3187 3189 3191 3192 3193 3193 3193 3195 3194 3195 3193 3194 3195 3197 3198 3202 3204 3202 3199 3199 3200 3201 3203 3204 3205 3206 3207 3208 3210 3212 3214 3215 3217 3219 3220 3221 3222 3222 3223 3224 3224 3224 3225 3225 3225
3182 3183 3186 3188 3189 3191 3193 3193 3193 3195 3195 3194 3198 3196 3195 3195 3196 3198 3200 3201 3204 3202 3203 3202 3202 3203 3204 3205 3207 3208 3209 3211 3213 3215 3217 3219 3221 3222 3223 3224 3225 3226 3227 3227 3227 3228 3228 3228 3228
3185 3187 3189 3190 3190 3193 3194 3194 3193 3193 3193 3195 3198 3197 3197 3197 3198 3200 3201 3202 3203 3204 3204 3204 3204 3205 3206 3208 3209 3211 3213 3215 3216 3218 3220 3222 3224 3226 3227 3228 3229 3230 3230 3230 3231 3231 3231 3231 3231
3165 3186 3190 3191 3190 3193 3195 3195 3195 3196 3197 3197 3198 3199 3197 3199 3200 3202 3203 3204 3204 3205 3206 3207 3207 3208 3209 3211 3212 3214 3216 3218 3219 3221 3223 3225 3227 3229 3230 3232 3232 3233 3233 3233 3234 3234 3234 3234 3233
3185 3189 3191 3193 3193 3195 3196 3197 3198 3199 3200 3200 3200 3197 3198 3200 3201 3204 3207 3208 3207 3207 3207 3208 3209 3210 3212 3213 3215 3217 3220 3222 3223 3224 3225 3227 3228 3231 3233 3235 3235 3235 3235 3235 3236 3235 3234 3234 3234
3191 3192 3192 3194 3195 3196 3197 3197 3200 3200 3201 3201 3200 3199 3200 3201 3204 3207 3209 3209 3209 3207 3208 3209 3210 3211 3212 3215 3218 3220 3222 3223 3225 3227 3229 3230 3231 3234 3234 3239 3235 3237 3238 3237 3236 3238 3235 3235 3235
3191 3193 3194 3195 3197 3197 3197 3199 3200 3199 3199 3200 3200 3199 3201 3204 3206 3208 3209 3209 3209 3208 3209 3209 3210 3211 3213 3215 3217 3220 3222 3227 3226 3229 3230 3231 3233 3233 3236 3236 3238 3237 3237 3237 3236 3236 3236 3235 3234
3192 3194 3196 3197 3198 3198 3199 3199 3200 3200 3199 3198 3199 3200 3203 3206 3208 3208 3208 3209 3209 3209 3209 3210 3211 3212 3214 3215 3219 3221 3226 3225 3228 3229 3231 3233 3233 3235 3235 3238 3239 3239 3237 3237 3236 3235 3235 3234 3234
3195 3196 3198 3199 3199 3199 3200 3200 3201 3199 3200 3199 3199 3202 3204 3206 3208 3208 3208 3208 3209 3210 3210 3210 3212 3213 3213 3216 3219 3222 3224 3229 3229 3229 3230 3231 3232 3233 3235 3238 3237 3239 3235 3235 3235 3235 3235 3234 3235
3195 3195 3196 3197 3199 3198 3198 3195 3198 3199 3201 3201 3201 3202 3204 3205 3206 3207 3207 3207 3208 3210 3210 3211 3212 3213 3215 3216 3218 3221 3226 3229 3231 3230 3230 3232 3233 3233 3234 3236 3239 3235 3235 3237 3236 3234 3234 3234 3234
3192 3191 3193 3197 3198 3198 3198 3195 3198 3199 3201 3202 3202 3203 3203 3205 3206 3206 3206 3206 3207 3209 3209 3211 3213 3213 3214 3216 3219 3221 3223 3225 3231 3232 3232 3230 3231 3231 3232 3233 3236 3230 3231 3233 3234 3233 3231 3231 3229
3190 3191 3191 3194 3196 3198 3198 3198 3198 3198 3200 3201 3202 3202 3203 3205 3205 3205 3206 3208 3207 3207 3209 3210 3212 3213 3214 3215 3217 3220 3223 3224 3228 3231 3233 3228 3228 3229 3229 3230 3229 3229 3229 3232 3229 3227 3227 3226 3226
3185 3191 3193 3194 3194 3196 3196 3194 3195 3196 3198 3199 3200 3200 3201 3203 3205 3205 3206 3208 3208 3205 3207 3209 3210 3212 3214 3215 3217 3219 3223 3225 3226 3228 3228 3224 3224 3225 3225 3226 3228 3227 3227 3225 3225 3224 3224 3223 3226
3193 3191 3193 3193 3194 3194 3193 3192 3192 3193 3194 3196 3197 3197 3198 3201 3204 3204 3205 3206 3207 3205 3205 3207 3209 3210 3212 3214 3216 3218 3221 3225 3225 3227 3223 3220 3220 3220 3222 3221 3223 3221 3222 3222 3221 3221 3221 3220 3219
3189 3189 3192 3192 3190 3188 3188 3184 3187 3188 3190 3192 3195 3196 3197 3199 3202 3203 3203 3204 3205 3206 3204 3205 3207 3209 3210 3212 3213 3214 3216 3218 3219 3219 3219 3216 3216 3217 3218 3219 3219 3219 3218 3218 3217 3216 3215 3214 3215
3185 3182 3188 3189 3187 3184 3183 3184 3180 3181 3185 3188 3191 3194 3196 3197 3199 3201 3201 3202 3204 3205 3205 3203 3204 3206 3208 3209 3210 3211 3214 3215 3215 3215 3216 3211 3211 3212 3213 3214 3214 3214 3213 3212 3210 3210 3210 3208 3206
3187 3186 3187 3186 3182 3177 3179 3175 3176 3173 3176 3182 3187 3190 3192 3195 3196 3198 3200 3200 3202 3204 3204 3203 3201 3203 3204 3205 3207 3208 3209 3212 3213 3213 3204 3204 3206 3206 3207 3207 3208 3208 3207 3208 3207 3207 3207 3206 3206
3189 3188 3186 3183 3178 3172 3175 3175 3172 3168 3179 3176 3183 3187 3189 3191 3193 3195 3197 3199 3199 3201 3203 3203 3199 3200 3201 3202 3202 3203 3204 3203 3203 3204 3202 3199 3201 3200 3199 3200 3201 3202 3202 3202 3203 3202 3203 3202 3201
3190 3185 3177 3177 3181 3173 3176 3178 3169 3172 3175 3176 3180 3183 3186 3188 3190 3192 3194 3197 3198 3199 3200 3201 3196 3194 3194 3195 3195 3196 3198 3198 3199 3199 3196 3190 3191 3196 3197 3194 3194 3196 3197 3197 3196 3196 3196 3197 3197
3188 3186 3181 3184 3166 3164 3170 3184 3169 3173 3173 3173 3175 3178 3180 3181 3187 3190 3192 3194 3196 3197 3189 3190 3191 3191 3194 3194 3194 3194 3194 3193 3193 3192 3191 3184 3155 3174 3188 3187 3188 3190 3191 3190 3189 3189 3189 3188 3192
3185 3183 3181 3176 3170 3164 3160 3164 3160 3165 3170 3169 3173 3175 3176 3178 3179 3188 3192 3191 3189 3183 3185 3187 3188 3189 3189 3189 3190 3192 3189 3189 3189 3188 3185 3184 3179 3176 3175 3174 3179 3182 3185 3184 3182 3180 3182 3185 3187
3183 3182 3179 3173 3171 3168 3163 3160 3165 3166 3162 3166 3170 3174 3175 3175 3176 3177 3178 3181 3177 3177 3184 3185 3184 3184 3183 3185 3184 3183 3181 3179 3178 3178 3174 3172 3174 3175 3175 3175 3171 3174 3179 3181 3177 3178 3179 3178 3179
3178 3178 3178 3176 3173 3166 3163 3161 3164 3168 3166 3167 3169 3172 3174 3174 3174 3175 3176 3177 3175 3175 3177 3178 3179 3179 3179 3180 3178 3175 3174 3173 3174 3170 3168 3168 3167 3169 3171 3166 3168 3168 3173 3175 3172 3172 3172 3172 3173
3172 3172 3172 3169 3168 3166 3166 3163 3161 3162 3164 3165 3168 3171 3171 3171 3171 3171 3172 3171 3171 3172 3174 3175 3175 3174 3174 3174 3174 3173 3172 3174 3170 3166 3167 3166 3166 3167 3168 3167 3168 3168 3167 3169 3169 3167 3167 3169 3170